Weather in Ortaca

Turkey     36°50′38″N   28°46′09″E
temp.,
°C
wind,
m/s
gust,
m/s
humid.,
%
clouds,
%
prec.,
mm/h
press.,
hPa
HPBL,
m
23 september, thu
thu2300:00+21nnw44440 0.0 1008114
03:00+19nnw33470 0.0 100788
06:00+19nnw33483 0.0 1007106
09:00+23nw35402 0.0 1007390
12:00+28wnw67310 0.0 10071959
15:00+29nw78283 0.0 10051981
18:00+25nnw99300 0.0 10071154
21:00+18n46450 0.0 1008182
24 september, fri
fri2400:00+16n57520 0.0 1010235
03:00+14n57570 0.0 1011200
06:00+13n56620 0.0 1012145
09:00+18n46410 0.0 1013403
12:00+27wnw13190 0.0 10131142
15:00+25sw75305 0.0 1012848
18:00+24sw453717 0.0 1012594
21:00+20ene33495 0.0 1014103
25 september, sat
sat2500:00+18nne33384 0.0 101562
03:00+17nne333432 0.0 101563
06:00+17n333414 0.0 101664
09:00+22n22240 0.0 1017209
12:00+27ssw42210 0.0 1017936
15:00+26ssw44265 0.0 1017565
18:00+25ssw22300 0.0 1016292
21:00+20nne22430 0.0 101737
26 september, sun
sun2600:00+19nne22420 0.0 101748
03:00+19n22360 0.0 101748
06:00+19nne223623 0.0 101653
09:00+24nne112715 0.0 1017166
12:00+28ssw32265 0.0 1016754
15:00+28ssw33288 0.0 1015576
18:00+26ssw22370 0.0 1014318
21:00+21nne22500 0.0 101435
27 september, mon
mon2700:00+20nne22490 0.0 101345
03:00+19n22460 0.0 101249
06:00+19n22410 0.0 101147
09:00+25nnw11280 0.0 1011165
12:00+29sw32290 0.0 1010648
15:00+28ssw44370 0.0 1009563
18:00+26ssw33540 0.0 1009390
21:00+22ne22690 0.0 101045